Date String (YYYY-MM-DD hh:mm:ss) UTC,Instrument flags,absolute air pressure of the measurement (hPa),sample flow rate (lpm),inlet stack bypass flow (lpm),air temperature of the measurement (°C),ambient temperature measured by the external sensor (°C),aerosol sample conditioner tube jacket temperature (°C),OPC LED temperature (°C),internal box temperature (°C),relative humidity of the measurement (%),span deviation,mass concentration of particles derived from Lorenz-Mie calculation of OPC scattering (μg/m³),mass concentration of particles derived from Lorenz-Mie calculation of OPC scattering (μg/m³),mass concentration of particles derived from Lorenz-Mie calculation of OPC scattering (μg/m³)
DateTimeUTC,F1_M11,P_M11,Q1_M11,Q2_M11,T1_M11,T2_M11,T3_M11,T4_M11,T5_M11,U1_M11,ZSPAN_M11,X0_M11,X2_M11,X1_M11
2023-11-09 11:00:00,SystemResetWarning,0833.8,4.99,000.00,020.2,019.2,000.0,028.6,021.5,21.2,0000.0,0004.66,0003.43,0003.25
2023-11-09 11:01:00,SystemResetWarning,0833.8,5.00,000.00,020.2,019.2,000.0,028.6,021.5,21.3,0000.0,0004.87,0003.54,0003.33
2023-11-09 11:02:00,SystemResetWarning,0833.8,5.00,000.00,020.1,019.2,000.0,028.6,021.5,21.3,0000.0,0005.16,0003.65,0003.43
2023-11-09 11:03:00,SystemResetWarning,0833.7,5.00,000.00,020.1,019.2,000.0,028.6,021.5,21.3,0000.0,0005.35,0003.75,0003.53
2023-11-09 11:04:00,SystemResetWarning,0833.7,5.00,000.00,020.1,019.2,000.0,028.6,021.5,21.3,0000.0,0005.75,0003.84,0003.60
2023-11-09 11:05:00,SystemResetWarning,0833.7,5.01,000.00,020.1,019.2,000.0,028.6,021.5,21.4,0000.0,0006.01,0003.90,0003.67
2023-11-09 11:06:00,SystemResetWarning,0833.7,5.02,000.00,020.1,019.2,000.0,028.6,021.4,21.5,0000.0,0006.18,0003.96,0003.72
2023-11-09 11:07:00,SystemResetWarning,0833.7,4.99,000.00,020.1,019.2,000.0,028.6,021.4,21.5,0000.0,0006.26,0004.00,0003.77
2023-11-09 11:08:00,SystemResetWarning,0833.7,4.98,000.00,020.0,019.1,000.0,028.6,021.4,21.3,0000.0,0006.27,0004.04,0003.80
2023-11-09 11:09:00,SystemResetWarning,0833.6,5.01,000.00,020.0,019.1,000.0,028.5,021.5,21.2,0000.0,0006.25,0004.07,0003.83
2023-11-09 11:10:00,SystemResetWarning,0833.6,5.01,000.00,020.2,019.6,000.0,028.5,022.0,21.0,0000.0,0006.31,0004.09,0003.85
2023-11-09 11:11:00,SystemResetWarning,0833.6,5.00,000.00,020.3,020.3,000.0,028.5,022.3,20.8,0000.0,0006.25,0004.09,0003.85
2023-11-09 11:12:00,SystemResetWarning,0833.5,4.98,000.00,020.4,020.3,000.0,028.6,022.0,20.7,0000.0,0006.04,0004.04,0003.83
2023-11-09 11:13:00,SystemResetWarning,0833.5,5.00,000.00,020.4,020.2,000.0,028.6,021.7,20.8,0000.0,0005.92,0004.01,0003.80
2023-11-09 11:14:00,SystemResetWarning,0833.4,5.01,000.00,020.3,020.0,000.0,028.6,021.5,20.6,0000.0,0005.92,0004.00,0003.78
2023-11-09 11:15:00,SystemResetWarning,0833.4,5.00,000.00,020.3,019.8,000.0,028.6,021.5,20.1,0000.0,0005.75,0003.97,0003.77
2023-11-09 11:16:00,SystemResetWarning,0833.4,5.00,000.00,020.3,019.7,000.0,028.6,021.5,20.3,0000.0,0005.41,0003.95,0003.76
2023-11-09 11:17:00,SystemResetWarning,0833.5,5.00,000.00,020.2,019.6,000.0,028.6,021.6,20.3,0000.0,0005.27,0003.91,0003.73
2023-11-09 11:18:00,SystemResetWarning,0833.5,5.00,000.00,020.2,019.5,000.0,028.6,021.6,20.2,0000.0,0005.17,0003.86,0003.68
2023-11-09 11:19:00,SystemResetWarning,0833.5,5.00,000.00,020.2,019.4,000.0,028.6,021.6,20.2,0000.0,0005.11,0003.84,0003.64
2023-11-09 11:20:00,SystemResetWarning,0833.5,5.00,000.00,020.2,019.4,000.0,028.6,021.5,19.7,0000.0,0005.07,0003.81,0003.61
2023-11-09 11:21:00,SystemResetWarning,0833.5,5.00,000.00,020.2,019.4,000.0,028.6,021.5,18.5,0000.0,0004.95,0003.77,0003.58
2023-11-09 11:22:00,SystemResetWarning,0833.5,5.00,000.00,020.2,019.3,000.0,028.6,021.5,17.8,0000.0,0004.93,0003.75,0003.57
2023-11-09 11:23:00,SystemResetWarning,0833.5,5.00,000.00,020.2,019.3,000.0,028.6,021.4,18.0,0000.0,0004.93,0003.74,0003.55
2023-11-09 11:24:00,SystemResetWarning,0833.5,5.00,000.00,020.2,019.3,000.0,028.6,021.4,17.6,0000.0,0004.79,0003.68,0003.50
2023-11-09 11:25:00,SystemResetWarning,0833.5,5.00,000.00,020.1,019.2,000.0,028.6,021.4,17.2,0000.0,0004.70,0003.61,0003.42
2023-11-09 11:26:00,SystemResetWarning,0833.5,5.00,000.00,020.1,019.2,000.0,028.6,021.5,16.8,0000.0,0004.57,0003.54,0003.36
2023-11-09 11:27:00,SystemResetWarning,0833.5,5.00,000.00,020.1,019.2,000.0,028.5,021.4,16.7,0000.0,0004.50,0003.48,0003.28
2023-11-09 11:28:00,SystemResetWarning,0833.5,5.01,000.00,020.1,019.1,000.0,028.5,021.3,16.5,0000.0,0004.42,0003.43,0003.22
2023-11-09 11:29:00,SystemResetWarning,0833.6,5.01,000.00,020.1,019.1,000.0,028.5,021.3,16.1,0000.0,0004.27,0003.37,0003.17
2023-11-09 11:30:00,SystemResetWarning,0833.6,4.98,000.00,020.1,019.1,000.0,028.5,021.3,16.0,0000.0,0004.11,0003.31,0003.13
2023-11-09 11:31:00,SystemResetWarning,0833.6,4.99,000.00,020.0,019.0,000.0,028.5,021.2,15.8,0000.0,0004.02,0003.24,0003.03
2023-11-09 11:32:00,SystemResetWarning,0833.6,5.02,000.00,020.0,019.0,000.0,028.5,021.3,15.7,0000.0,0003.86,0003.14,0002.87
2023-11-09 11:33:00,SystemResetWarning,0833.7,5.00,000.00,020.0,019.0,000.0,028.5,021.2,15.5,0000.0,0003.74,0003.01,0002.71
2023-11-09 11:34:00,SystemResetWarning,0833.7,4.99,000.00,020.0,019.0,000.0,028.5,021.3,15.5,0000.0,0003.59,0002.86,0002.57
2023-11-09 11:35:00,SystemResetWarning,0833.7,4.99,000.00,020.0,019.0,000.0,028.5,021.3,15.3,0000.0,0003.49,0002.77,0002.50
2023-11-09 11:36:00,SystemResetWarning,0833.6,4.99,000.00,020.0,018.9,000.0,028.5,021.2,15.2,0000.0,0003.32,0002.67,0002.44
2023-11-09 11:37:00,SystemResetWarning,0833.6,5.01,000.00,020.0,018.9,000.0,028.4,021.2,15.1,0000.0,0003.22,0002.60,0002.38
2023-11-09 11:38:00,SystemResetWarning,0833.7,5.00,000.00,020.0,018.9,000.0,028.4,021.2,15.0,0000.0,0003.19,0002.54,0002.31
2023-11-09 11:39:00,SystemResetWarning,0833.7,5.00,000.00,020.0,018.9,000.0,028.4,021.2,15.0,0000.0,0003.11,0002.47,0002.25
2023-11-09 11:40:00,SystemResetWarning,0833.6,5.00,000.00,019.9,018.9,000.0,028.4,021.2,15.0,0000.0,0003.11,0002.43,0002.22
2023-11-09 11:41:00,SystemResetWarning,0833.6,5.00,000.00,019.9,018.9,000.0,028.4,021.2,15.0,0000.0,0003.22,0002.42,0002.19
2023-11-09 11:42:00,SystemResetWarning,0833.6,5.00,000.00,019.9,018.9,000.0,028.4,021.2,14.9,0000.0,0003.17,0002.39,0002.16
2023-11-09 11:43:00,SystemResetWarning,0833.6,5.00,000.00,020.0,019.1,000.0,028.4,021.6,15.0,0000.0,0003.24,0002.41,0002.15
2023-11-09 11:44:00,SystemResetWarning,0833.7,5.01,000.00,020.1,020.0,000.0,028.4,022.1,14.9,0000.0,0003.24,0002.40,0002.15
2023-11-09 11:45:00,SystemResetWarning,0833.7,5.00,000.00,020.3,020.5,000.0,028.5,022.3,14.5,0000.0,0003.28,0002.40,0002.14
2023-11-09 11:46:00,SystemResetWarning,0833.7,4.98,000.00,020.4,020.5,000.0,028.5,022.2,14.4,0000.0,0003.30,0002.40,0002.13
2023-11-09 11:47:00,SystemResetWarning,0833.7,5.00,000.00,020.4,020.3,000.0,028.5,022.1,14.4,0000.0,0003.30,0002.40,0002.13
2023-11-09 11:48:00,SystemResetWarning,0833.6,5.00,000.00,020.4,020.2,000.0,028.6,022.0,14.3,0000.0,0003.33,0002.40,0002.13
2023-11-09 11:49:00,SystemResetWarning,0833.6,5.00,000.00,020.4,020.0,000.0,028.6,021.9,14.3,0000.0,0003.28,0002.38,0002.14
2023-11-09 11:50:00,SystemResetWarning,0833.5,5.00,000.00,020.4,019.9,000.0,028.6,021.9,14.5,0000.0,0003.32,0002.41,0002.17
2023-11-09 11:51:00,SystemResetWarning,0833.5,5.00,000.00,020.4,019.8,000.0,028.6,021.8,14.6,0000.0,0003.33,0002.43,0002.18
2023-11-09 11:52:00,SystemResetWarning,0833.4,5.01,000.00,020.4,019.6,000.0,028.6,021.8,14.6,0000.0,0003.94,0002.41,0002.18
2023-11-09 11:53:00,SystemResetWarning,0833.4,5.01,000.00,020.4,019.5,000.0,028.6,021.7,14.2,0000.0,0004.04,0002.41,0002.19
2023-11-09 11:54:00,SystemResetWarning,0833.4,5.00,000.00,020.3,019.5,000.0,028.6,021.7,14.3,0000.0,0004.10,0002.44,0002.21
2023-11-09 11:55:00,SystemResetWarning,0833.4,4.99,000.00,020.3,019.4,000.0,028.6,021.6,14.5,0000.0,0004.06,0002.45,0002.23
2023-11-09 11:56:00,SystemResetWarning,0833.5,4.99,000.00,020.3,019.4,000.0,028.6,021.6,14.5,0000.0,0004.09,0002.49,0002.25
2023-11-09 11:57:00,SystemResetWarning,0833.5,4.99,000.00,020.3,019.4,000.0,028.6,021.6,14.2,0000.0,0004.09,0002.50,0002.27
2023-11-09 11:58:00,SystemResetWarning,0833.5,5.00,000.00,020.3,019.3,000.0,028.6,021.6,14.1,0000.0,0004.20,0002.56,0002.30
2023-11-09 11:59:00,SystemResetWarning,0833.6,5.01,000.00,020.3,019.3,000.0,028.6,021.5,14.1,0000.0,0004.27,0002.60,0002.31
